TOP > 外国特許検索

外国特許検索

Display results per page Option
Patent state
Country

Clear

Hits 4683 results

No. Application number
Gazette No
Country
Title
Release Date
Update Date
Information Provider
801 2009JP054780 WO 2010/103644 世界知的所有権機関(WIPO) OPEN PET-MRI COMPLEX MACHINE 2010/11/29 2010/12/16 放射線医学総合研究所
802 2010JP006114 WO 2011/045937 世界知的所有権機関(WIPO) METHOD AND MARKER FOR DETERMINATION OF DEGREE OF RISK OF ONSET OF HIGH-FUNCTIONING AUTISM 2010/11/30 2011/05/24 浜松医科大学
803 2009JP005625 WO 2010/050167 世界知的所有権機関(WIPO) COMPOSITION FOR INDUCING TH2 CELL, THERAPEUTIC COMPOSITION FOR TH2-TYPE DISEASE, AND USE OF SAME 新技術説明会 2010/12/08 2010/12/27 兵庫医科大学
804 2009JP066652 WO 2010/041560 世界知的所有権機関(WIPO) QUANTITATIVE EVALUATION METHOD AND DEVICE FOR ZETA POTENTIAL, pH OR TEMPERATURE DISTRIBUTION AT WALL SURFACE, AND QUANTITATIVE VISUALIZATION METHOD AND DEVICE FOR SURFACE MODIFICATION 2010/12/09 2010/12/16 慶應義塾大学
805 2008JP065042 WO 2009/028424 世界知的所有権機関(WIPO) ELECTRONIC ELEMENT AND ELECTRICAL CONDUCTIVITY CONTROL METHOD 新技術説明会 2010/12/14 2010/12/15 岡山大学
806 2008JP065045 WO 2009/028426 世界知的所有権機関(WIPO) ELECTRONIC ELEMENT AND ELECTROCONDUCTIVITY CONTROL METHOD 新技術説明会 2010/12/14 2010/12/15 岡山大学
807 2008JP065724 WO 2009/031517 世界知的所有権機関(WIPO) SURFACE TREATING METHOD AND DEVICE THEREOF 新技術説明会 2010/12/14 2010/12/15 岡山大学
808 2008JP063002 WO 2009034779 世界知的所有権機関(WIPO) CANCER DIAGNOSIS KIT AND CANCER DIAGNOSIS METHOD 2010/12/14 2019/04/24 岡山大学
809 2008JP069004 WO 2009054361 世界知的所有権機関(WIPO) HAIR GROWTH PROMOTER 2010/12/14 2019/04/24 岡山大学
810 2009JP051034 WO 2009/093675 世界知的所有権機関(WIPO) METHOD AND BACTERIUM FOR PROMOTING THE GROWTH OF RACOMITRIUM CANESCENS AND SEED PLANTS 2010/12/14 2010/12/15 岡山大学
811 2009JP051907 WO 2009/099112 世界知的所有権機関(WIPO) NOVEL DNA FRAGMENT AND USE THEREOF 新技術説明会 2010/12/14 2010/12/27 岡山大学
812 2009JP055208 WO 2009116546 世界知的所有権機関(WIPO) EXCITATORY CHEMICAL MEDIATOR AND METHOD FOR SCREENING THEREOF 新技術説明会 2010/12/14 2019/04/24 岡山大学
813 2009JP055816 WO 2009/119578 世界知的所有権機関(WIPO) MICRO-DROPLET DISPENSING DEVICE 2010/12/14 2010/12/15 岡山大学
814 2009JP056428 WO 2009/119874 世界知的所有権機関(WIPO) PHARMACEUTICAL COMPOSITION FOR TREATING OR PREVENTING CANCER WHICH INDUCES DENDRITIC CELL-LIKE DIFFERENTIATION OF MONOCYTES TO INCREASE ANTICANCER IMMUNE ACTIVITY 2010/12/14 2011/05/23 岡山大学
815 2009JP053256 WO 2009/125626 世界知的所有権機関(WIPO) MESOTHELIOMA-SPECIFIC PROMOTER AND USE THEREOF 2010/12/14 2010/12/15 岡山大学
816 2009JP059045 WO 2009139459 世界知的所有権機関(WIPO) METHOD FOR PREVENTION AND TREATMENT OF METABOLIC SYNDROME THROUGH THE INHIBITION OF PSGL-1 2010/12/14 2019/04/24 岡山大学
817 2009JP058996 WO 2009/145067 世界知的所有権機関(WIPO) THERAPEUTIC AGENT FOR PAIN AND USE THEREOF 新技術説明会 2010/12/14 2010/12/15 岡山大学
818 2009JP059982 WO 2009/148017 世界知的所有権機関(WIPO) ARTIFICIAL TERMITE EGG HAVING .BETA.-GLUCOSIDASE AS TERMITE EGG RECOGNITION PHEROMONE, AND CONTROL OF TERMITES USING THE SAME 2010/12/14 2010/12/15 岡山大学
819 2009JP061698 WO 2010/001824 世界知的所有権機関(WIPO) NOVEL ANTISCHISTOSOMAL AGENT 2010/12/14 2010/12/15 岡山大学
820 2009JP065264 WO 2010/026966 世界知的所有権機関(WIPO) NOVEL ANTI-HCV AGENT AND USE THEREOF 2010/12/14 2010/12/15 岡山大学
821 2009JP053140 WO 2009/107575 世界知的所有権機関(WIPO) DEVICE FOR NONDESTRUCTIVELY EXAMINING COMPOSITE STRUCTURE AND NONDESTRUCTIVE EXAMINATION METHOD 新技術説明会 2010/12/15 2010/12/15 高エネルギー加速器研究機構
822 2009JP067046 WO 2010/038785 世界知的所有権機関(WIPO) PHOTOSENSOR AND METHOD FOR MANUFACTURING THE PHOTOSENSOR 新技術説明会 2010/12/15 2010/12/15 岡山大学
823 2009JP067047 WO 2010/038786 世界知的所有権機関(WIPO) MEMORY ELEMENT, METHOD FOR MANUFACTURING THE MEMORY ELEMENT, AND MEMORY DEVICE COMPRISING MEMORY ELEMENT 新技術説明会 2010/12/15 2010/12/15 岡山大学
824 2009JP067048 WO 2010/038787 世界知的所有権機関(WIPO) PHOTOELECTRIC CONVERSION ELEMENT AND METHOD FOR MANUFACTURING THE PHOTOELECTRIC CONVERSION ELEMENT 新技術説明会 2010/12/15 2010/12/15 岡山大学
825 2009JP067049 WO 2010/038788 世界知的所有権機関(WIPO) CURRENT CONTROL ELEMENT AND METHOD FOR MANUFACTURING THE CURRENT CONTROL ELEMENT 新技術説明会 2010/12/15 2010/12/15 岡山大学
826 2009JP005235 WO 2010/041449 世界知的所有権機関(WIPO) ANTI-ALLERGIC AGENT COMPRISING RXR AGONIST AS ACTIVE INGREDIENT 2010/12/15 2010/12/15 岡山大学
827 2009JP004465 WO 2010/050109 世界知的所有権機関(WIPO) KIT FOR PRODUCING DOUBLE-STRANDED RNA WITH LACTIC ACID BACTERIUM, AND USE THEREOF 2010/12/15 2010/12/27 岡山大学
828 2009JP005718 WO 2010/050211 世界知的所有権機関(WIPO) COMPOSITION FOR LOCAL ANESTHESIA 2010/12/15 2010/12/15 岡山大学
829 2009JP069224 WO 2010/055867 世界知的所有権機関(WIPO) METHOD FOR DETERMINING THERAPEUTIC EFFECT OF REPERFUSION THERAPY 新技術説明会 2010/12/15 2010/12/15 岡山大学
830 2010JP051087 WO 2010/087383 世界知的所有権機関(WIPO) ION SENSOR 2010/12/15 2010/12/15 岡山大学
831 2010JP053626 WO 2010/101240 世界知的所有権機関(WIPO) BIODEGRADABLE POROUS HOLLOW PARTICLE, AND PRODUCTION METHOD AND APPLICATION THEREOF 2010/12/15 2010/12/15 岡山大学
832 2008JP073572 WO 2009/087908 世界知的所有権機関(WIPO) METHOD OF RECYCLING USEFUL METAL 新技術説明会 2011/01/05 2011/01/19 芝浦工業大学
833 2010JP067530 WO 2011/043369 世界知的所有権機関(WIPO) WATER-SOLUBLE PORPHYRIN AND PROCESS FOR PRODUCTION THEREOF 新技術説明会 2011/01/06 2011/04/21 宮崎大学
834 2008JP059681 WO 2008/149712 世界知的所有権機関(WIPO) DISTORTION INSPECTING APPARATUS AND DISTORTION INSPECTING METHOD 新技術説明会 2011/01/12 2011/01/19 宮崎大学
835 2009JP061665 WO 2009/154308 世界知的所有権機関(WIPO) ELECTRODE 2011/01/12 2011/05/23 宮崎大学
836 2008JP002335 WO 2009/028186 世界知的所有権機関(WIPO) ELECTROMAGNETIC FIELD SPACE DISTRIBUTION VISUALIZING DEVICE, ELECTROMAGNETIC FIELD SPACE DISTRIBUTION VISUALIZING METHOD, AND PROGRAM THEREOF 新技術説明会 2011/01/12 2011/01/19 金沢大TLO
837 2009JP003429 WO 2010/013408 世界知的所有権機関(WIPO) RADIO FIELD STRENGTH MEASURING DEVICE AND RADIO FIELD STRENGTH MEASURING SYSTEM 新技術説明会 2011/01/12 2011/01/19 金沢大TLO
838 2008JP061243 WO 2008/156139 世界知的所有権機関(WIPO) PROTEIN ANALYSIS METHOD USING ISOTOPE COMPOUND AS LABEL 新技術説明会 2011/01/13 2011/01/19 福井大学
839 2008JP072942 WO 2009/078423 世界知的所有権機関(WIPO) FUSED TRICYCLIC COMPOUND HAVING ALDOSE REDUCTASE INHIBITORY ACTIVITY 新技術説明会 2011/01/13 2011/01/19 富山大学
840 2008JP073175 WO 2009081854 世界知的所有権機関(WIPO) BIOMARKER FOR ALLERGIC DISEASE AND UTILIZATION OF THE SAME 2011/01/13 2019/04/22 富山大学
841 2008JP055132 WO 2008/114829 世界知的所有権機関(WIPO) ENCRYPTION DEVICE, DECRYPTION DEVICE, ENCRYPTION PROGRAM, DECRYPTION PROGRAM, AND RECORDING MEDIUM 2011/01/13 2011/01/19 東京電機大学
842 2008JP069306 WO 2009/057517 世界知的所有権機関(WIPO) INTERPOLATION PROCESSING METHOD AND INTERPOLATION PROCESSOR 2011/01/17 2011/01/19 横浜国立大学
843 2009JP053252 WO 2009/142037 世界知的所有権機関(WIPO) APPROXIMATION PROCESSING METHOD AND APPROXIMATION PROCESSING DEVICE 2011/01/17 2011/01/19 横浜国立大学
844 2008JP001394 WO 2008/149542 世界知的所有権機関(WIPO) METHOD FOR PRODUCTION OF DHA-CONTAINING PHOSPHOLIPID THROUGH MICROBIAL FERMENTATION 新技術説明会 2011/01/20 2011/02/16 北海道大学
845 2010JP001867 WO 2010/106794 世界知的所有権機関(WIPO) SYSTEM FOR ANALYZING EXPRESSION PROFILE AND PROGRAM THEREOF 2011/01/20 2011/02/16 明治大学
846 2007JP067745 WO 2008/041457 世界知的所有権機関(WIPO) MASSAGE ROBOT, CONTROL PROGRAM THEREFOR, AND ROBOT FOR SPECIFYING PORTION OF HUMAN BODY 2011/02/03 2011/02/16 早稲田大学
847 2008JP052509 WO 2008/099915 世界知的所有権機関(WIPO) ROAD/FEATURE MEASURING DEVICE, FEATURE IDENTIFYING DEVICE, ROAD/FEATURE MEASURING METHOD, ROAD/FEATURE MEASURING PROGRAM, MEASURING DEVICE, MEASURING METHOD, MEASURING PROGRAM, MEASURED POSITION DATA, MEASURING TERMINAL, MEASURING SERVER DEVICE, DRAWING DEVICE, DRAWING METHOD, DRAWING PROGRAM, AND DRAWING DATA 2011/02/03 2011/02/16 早稲田大学
848 2005JP002821 WO 2005/079661 世界知的所有権機関(WIPO) APPARENT CHEMICAL SPECIES MEASURING METHOD AND MEASURING SYSTEM 2011/02/03 2011/02/16 早稲田大学
849 2006JP310372 WO 2006/134759 世界知的所有権機関(WIPO) SENTENCE EVALUATING DEVICE AND SENTENCE EVALUATING PROGRAM 2011/02/03 2011/02/16 早稲田大学
850 2009JP051533 WO 2009/096504 世界知的所有権機関(WIPO) MICRO VACUUM GAUGE 2011/02/09 2011/02/16 立命館大学
851 2010JP053374 WO 2010/098492 世界知的所有権機関(WIPO) ACTIVATED METAL SALT FLOCCULANT AND PROCESS FOR PRODUCING SAME 実績あり 2011/03/01 2011/03/22 山口TLO
852 2010JP063296 WO 2011/016520 世界知的所有権機関(WIPO) ELECTROSTATIC SORTING APPARATUS 2011/03/03 2011/03/18 芝浦工業大学
853 2007JP056839 WO 2007/114238 世界知的所有権機関(WIPO) APPARATUS FOR DETERMINING BRAIN ATROPHY, METHOD OF DETERMINING BRAIN ATROPHY AND PROGRAM FOR DETERMINING BRAIN ATROPHY 2011/03/04 2011/03/22 浜松医科大学
854 2007JP055617 WO 2007/111193 世界知的所有権機関(WIPO) METHOD OF QUANTIFYING OXIDIZED PROTEIN, LABELING REAGENTS FOR QUANTIFYING OXIDIZED PROTEIN AND LABELING REAGENT KIT FOR QUANTIFYING OXIDIZED PROTEIN 2011/03/04 2011/05/23 北陸先端科学技術大学院大学
855 2007JP000409 WO 2007/122814 世界知的所有権機関(WIPO) MULTIWELL INCUBATION APPARATUS AND METHOD OF ANALYSIS USING THE SAME 2011/03/04 2011/03/22 情報・システム研究機構 国立遺伝学研究所
856 2009JP064053 WO 2010/016587 世界知的所有権機関(WIPO) METHOD FOR EVALUATING SPECIFIC INCORPORATION OF D-GLUCOSE INTO CELLS 2011/03/04 2011/03/18 弘前大学
857 2006JP325084 WO 2007/069736 世界知的所有権機関(WIPO) METHOD OF EVALUATING TREE BODY PRODUCTION POWER, IMAGING DEVICE FOR EVALUATING TREE BODY PRODUCTION POWER AND PROGRAM FOR EVALUATING TREE BODY PRODUCTION POWER 新技術説明会 2011/03/04 2011/03/22 山口TLO
858 2006JP300806 WO 2006/090538 世界知的所有権機関(WIPO) SYSTEM STABILITY CONTROL METHOD AND SYSTEM FOR ELECTRIC POWER SYSTEM 新技術説明会 実績あり 2011/03/07 2011/03/22 九州工業大学
859 2007JP061173 WO 2007/142133 世界知的所有権機関(WIPO) DISCHARGE PREVENTION DEVICE 2011/03/07 2011/03/22 九州工業大学
860 2008JP051318 WO 2008/120488 世界知的所有権機関(WIPO) ELECTRONIC CIRCUIT DEVICE 実績あり 2011/03/07 2011/03/22 九州工業大学
861 2008JP054308 WO 2008/126548 世界知的所有権機関(WIPO) METHOD FOR EVALUATING SRAM MEMORY CELL AND MEDIUM RECORDING EVALUATION PROGRAM OF SRAM MEMORY CELL COMPUTER READABLY 実績あり 2011/03/07 2011/03/22 九州工業大学
862 2005JP011026 WO 2005/125013 世界知的所有権機関(WIPO) OPTICALLY RECONFIGURABLE GATE ARRAY WRITE STATE INSPECTION METHOD, WRITE STATE INSPECTION DEVICE, AND OPTICALLY RECONFIGURABLE GATE ARRAY 実績あり 2011/03/07 2011/05/25 九州工業大学
863 2005JP012541 WO 2006/016455 世界知的所有権機関(WIPO) EUROPIUM DIKETONE CHELATE COMPOUND AND FLUORESCENT MATERIAL USING SAME 実績あり 2011/03/08 2011/03/22 九州工業大学
864 2005JP014811 WO 2006/019043 世界知的所有権機関(WIPO) POROUS SHEET MEMBER FOR CELL CULTURE AND, UTILIZING THE SAME, BIOREACTOR AND CULTURING METHOD 2011/03/08 2011/03/22 九州工業大学
865 2007JP054100 WO 2007/113964 世界知的所有権機関(WIPO) MULTI-STAGE LOGIC RECONFIGURATION DEVICE AND RECONFIGURATION METHOD, LOGIC CIRCUIT CORRECTION DEVICE, AND RECONFIGURABLE MULTI-STAGE LOGIC CIRCUIT 実績あり 2011/03/08 2011/03/23 九州工業大学
866 2007JP056497 WO 2007/119539 世界知的所有権機関(WIPO) ADDRESS GENERATOR 実績あり 2011/03/08 2011/03/23 九州工業大学
867 2007JP056498 WO 2007/119540 世界知的所有権機関(WIPO) ASSOCIATED MEMORY 実績あり 2011/03/08 2011/03/24 九州工業大学
868 2007JP065085 WO 2008/026413 世界知的所有権機関(WIPO) RECONFIGURATION CONTROLLER FOR OPTICALLY RECONFIGURABLE GATE ARRAY AND ITS METHOD 実績あり 2011/03/08 2011/03/24 九州工業大学
869 2009JP000639 WO 2009/125535 世界知的所有権機関(WIPO) NEEDLE PROBE FOR COOLING OPERATION AND COOLING OPERATION SYSTEM 実績あり 2011/03/08 2011/03/24 九州工業大学
870 2009JP060237 WO 2009/157284 世界知的所有権機関(WIPO) ORGANIC FIELD EFFECT TRANSISTOR 2011/03/08 2011/03/24 九州工業大学
871 2006JP320435 WO 2007/063647 世界知的所有権機関(WIPO) PARTIAL DISCHARGE CHARGE QUANTITY MEASURING METHOD AND DEVICE 実績あり 2011/03/09 2011/03/24 九州工業大学
872 2010JP053577 WO 2010/101224 世界知的所有権機関(WIPO) ORGANIC SEMICONDUCTOR MATERIAL AND ORGANIC THIN FILM TRANSISTOR 2011/04/18 2011/04/20 九州工業大学
873 2005JP015277 WO 2006/030608 世界知的所有権機関(WIPO) TERAHERTZ ELECTROMAGNETIC WAVE RADIATION ELEMENT AND ITS MANUFACTURING METHOD 実績あり 2011/03/09 2011/03/24 九州工業大学
874 2005JP022577 WO 2006/067974 世界知的所有権機関(WIPO) NON-CONTACT CONVEY DEVICE BY SUPERCONDUCTING MAGNETIC LEVITATION 新技術説明会 2011/03/09 2011/03/24 九州工業大学
875 2009JP053157 WO 2010/001632 世界知的所有権機関(WIPO) MICRO-RNA ASSOCIATED WITH RHEUMATOID ARTHRITIS 2011/03/09 2011/03/18 神戸大学
876 2007JP053155 WO 2008/029521 世界知的所有権機関(WIPO) THERMOACOUSTIC DEVICE 2011/03/10 2011/03/22 同志社大学
877 2006JP304961 WO 2006/103910 世界知的所有権機関(WIPO) NONDESTRUCTIVE INSPECTION METHOD AND DEVICE 新技術説明会 2011/03/10 2011/03/24 九州工業大学
878 2006JP313691 WO 2007/013287 世界知的所有権機関(WIPO) VALVELESS MICROPUMP 実績あり 2011/03/10 2011/03/24 九州工業大学
879 2006JP323862 WO 2007/063924 世界知的所有権機関(WIPO) CONVERSION DEVICE, CONVERSION METHOD, PROGRAM, AND RECORDING MEDIUM 実績あり 2011/03/10 2011/05/25 九州工業大学
880 2007JP056149 WO 2007/111288 世界知的所有権機関(WIPO) GENERATING DEVICE, GENERATING METHOD, PROGRAM AND RECORDING MEDIUM 実績あり 2011/03/10 2011/05/25 九州工業大学
881 2008JP061548 WO 2009/001858 世界知的所有権機関(WIPO) WEAR FOR ELECTRICALLY STIMULATING MUSCLES 新技術説明会 実績あり 2011/03/10 2011/03/24 九州工業大学
882 2009JP006016 WO 2010/055649 世界知的所有権機関(WIPO) DEVICE FOR SUPPRESSING SUSTAINED DISCHARGE ON SOLAR BATTERY ARRAY 新技術説明会 2011/03/10 2011/03/24 九州工業大学
883 2009JP063586 WO 2010/021233 世界知的所有権機関(WIPO) GENERATING DEVICE, GENERATING METHOD, AND PROGRAM 実績あり 2011/03/10 2011/03/24 九州工業大学
884 2009JP067325 WO 2010/047219 世界知的所有権機関(WIPO) GENERATION DEVICE, DETERMINATION METHOD, GENERATION METHOD, AND PROGRAM 実績あり 2011/03/10 2011/03/24 九州工業大学
885 2010JP050924 WO 2010/098160 世界知的所有権機関(WIPO) OBJECT MOTION INFERRING DEVICE, OBJECT MOTION INFERRING METHOD, PROGRAM, AND RECORDING MEDIUM 2011/03/10 2011/03/24 九州工業大学
886 2010JP000501 WO 2010/087178 世界知的所有権機関(WIPO) WIND TURBINE GENERATOR 新技術説明会 実績あり 2011/03/14 2011/03/24 九州工業大学
887 2007JP065667 WO 2008/018570 世界知的所有権機関(WIPO) ANTIREFLECTION STRUCTURE, PROCESS FOR PRODUCING THE SAME AND PROCESS FOR PRODUCING OPTICAL MEMBER 2011/03/14 2011/05/23 東京理科大学
888 2008JP054074 WO 2008/108438 世界知的所有権機関(WIPO) SILANE COUPLING AGENTS WITH HEAT RESISTANCE, DURABILITY, RELEASABILITY, AND ANTIFOULING PROPERTY AND PROCESS FOR PRODUCING THESE COMPOUNDS 2011/03/14 2011/03/18 東京理科大学
889 2007JP065086 WO 2008/026414 世界知的所有権機関(WIPO) IMAGE RECOGNITION METHOD, IMAGE RECOGNITION DEVICE, AND IMAGE RECOGNITION PROGRAM 新技術説明会 2011/03/14 2011/03/22 大阪府立大学
890 2007JP073761 WO 2008/069341 世界知的所有権機関(WIPO) SHIP BUOYANCY CONTROL SYSTEM 2011/03/14 2011/03/22 横浜国立大学
891 2008JP054918 WO 2008/120570 世界知的所有権機関(WIPO) CULTURE MEDIUM FOR PRODUCTION OF PROTEIN OR PROLIFERATION OF VIRUS 2011/03/14 2011/03/22 岡山大学
892 2008JP055286 WO 2008/117753 世界知的所有権機関(WIPO) METHOD FOR IMAGING BLOOD VESSEL, SYSTEM FOR IMAGING BLOOD VESSEL AND PROGRAM FOR IMAGING BLOOD VESSEL 2011/03/14 2011/03/22 岐阜大学
893 2008JP051899 WO 2008/093881 世界知的所有権機関(WIPO) METHOD FOR SYNTHESIS OF NITROXYL RADICAL 2011/03/14 2011/03/22 九州大学
894 2008JP056826 WO 2008/123614 世界知的所有権機関(WIPO) METHOD FOR PRODUCTION OF THREE-DIMENSIONAL STRUCTURE OF CELLS 2011/03/14 2011/03/22 九州大学
895 2007JP065720 WO 2008/023582 世界知的所有権機関(WIPO) DEPSIPEPTIDE CONTAINING LACTIC ACID RESIDUE 新技術説明会 2011/03/14 2011/03/22 群馬大学
896 2007JP068970 WO 2008/038766 世界知的所有権機関(WIPO) FUNCTIONAL PEPTIDE HAVING ACTIVITY OF STIMULATING IMMUNE CELL 新技術説明会 2011/03/14 2011/03/22 群馬大学
897 2008JP055650 WO 2008/117813 世界知的所有権機関(WIPO) CHICKEN EMBRYONIC STEM CELL AND METHOD FOR EVALUATION THEREOF 2011/03/14 2011/03/22 広島大学
898 2010JP069614 WO 2011/055751 世界知的所有権機関(WIPO) GAS SENSITIVE MATERIAL COMPRISING MICROCRYSTALLINE SELENIUM AND GAS SENSOR USING SAME 新技術説明会 2011/03/15 2011/05/23 岡山理科大学
899 2010JP069104 WO 2011/058881 世界知的所有権機関(WIPO) APPARATUS FOR PRODUCING ULTRAFINE LIQUID DROPLETS 2011/03/15 2011/08/01 岡山大学
900 2009JP065263 WO 2010/026965 世界知的所有権機関(WIPO) CELL CAPABLE OF REPLICATING NOVEL HCV REPLICON, CELL CAPABLE OF REPLICATING FULL-LENGTH HCV RNA, AND USE OF THOSE CELLS 2011/03/17 2011/03/22 岡山大学

PAGE TOP